contact:dominique.lefevre@mio.osupytheas.fr, maurice.libes@osupytheas.fr, didier.mallarino@osupytheas.fr
Project:EMSO http://www.emso-fr.org/EMSO-France
Depth: 2436.0 m
Title:EMSO Ligure Ouest : Data MII capteur CSTAR
DateTime,Latitude,Longitude,Instrument_Serial,Reference_Counts,Signal_Counts,Corrected_Signal_raw_counts,Calculated_Beam_c_inverse_meters,Internal_thermistor_counts
DateTime,Latitude,Longitude,Instrument_Serial,Reference_Counts,Signal_Counts,Corrected_Signal_raw_counts,Calculated_Beam_c_inverse_meters,Internal_thermistor_counts
2020-04-24T00:02:56,42.805,6.029,CST-1368DR,6422,9002,15183,0.112,551
2020-04-24T00:05:57,42.805,6.029,CST-1368DR,6422,9000,15180,0.113,550
2020-04-24T00:08:59,42.805,6.029,CST-1368DR,6422,9000,15180,0.113,551
2020-04-24T00:12:01,42.805,6.029,CST-1368DR,6422,9000,15181,0.113,551
2020-04-24T00:15:03,42.805,6.029,CST-1368DR,6422,9000,15180,0.113,551
2020-04-24T00:18:04,42.805,6.029,CST-1368DR,6422,9001,15182,0.113,551
2020-04-24T00:21:06,42.805,6.029,CST-1368DR,6422,9001,15183,0.112,551
2020-04-24T00:24:08,42.805,6.029,CST-1368DR,6422,9001,15183,0.112,551
2020-04-24T00:27:09,42.805,6.029,CST-1368DR,6421,9001,15184,0.112,551
2020-04-24T00:30:11,42.805,6.029,CST-1368DR,6422,9002,15183,0.112,551
2020-04-24T00:33:13,42.805,6.029,CST-1368DR,6421,9000,15182,0.113,551
2020-04-24T00:36:14,42.805,6.029,CST-1368DR,6422,9001,15182,0.113,550
2020-04-24T00:39:16,42.805,6.029,CST-1368DR,6421,8999,15181,0.113,551
2020-04-24T00:42:18,42.805,6.029,CST-1368DR,6421,9001,15184,0.112,551
2020-04-24T00:45:19,42.805,6.029,CST-1368DR,6421,9002,15185,0.112,551
2020-04-24T00:48:21,42.805,6.029,CST-1368DR,6421,9000,15182,0.113,551
2020-04-24T00:51:23,42.805,6.029,CST-1368DR,6421,8996,15176,0.114,551
2020-04-24T00:54:25,42.805,6.029,CST-1368DR,6421,8999,15181,0.113,551
2020-04-24T00:57:27,42.805,6.029,CST-1368DR,6421,8999,15181,0.113,551
2020-04-24T01:00:28,42.805,6.029,CST-1368DR,6421,9001,15185,0.112,551
2020-04-24T01:03:30,42.805,6.029,CST-1368DR,6421,9000,15183,0.112,551
2020-04-24T01:06:32,42.805,6.029,CST-1368DR,6421,9001,15185,0.112,551
2020-04-24T01:09:33,42.805,6.029,CST-1368DR,6421,9001,15184,0.112,551
2020-04-24T01:12:35,42.805,6.029,CST-1368DR,6421,9000,15183,0.112,551
2020-04-24T01:15:37,42.805,6.029,CST-1368DR,6421,9001,15184,0.112,551
2020-04-24T01:18:39,42.805,6.029,CST-1368DR,6421,9001,15184,0.112,551
2020-04-24T01:21:40,42.805,6.029,CST-1368DR,6421,9000,15182,0.113,551
2020-04-24T01:24:42,42.805,6.029,CST-1368DR,6421,9001,15184,0.112,551
2020-04-24T01:27:44,42.805,6.029,CST-1368DR,6421,9001,15184,0.112,551
2020-04-24T01:30:46,42.805,6.029,CST-1368DR,6421,9000,15183,0.112,551
2020-04-24T01:33:47,42.805,6.029,CST-1368DR,6421,9001,15184,0.112,551
2020-04-24T01:36:49,42.805,6.029,CST-1368DR,6421,9001,15184,0.112,551
2020-04-24T01:39:51,42.805,6.029,CST-1368DR,6421,9001,15184,0.112,551
2020-04-24T01:42:53,42.805,6.029,CST-1368DR,6421,9000,15183,0.112,551
2020-04-24T01:45:54,42.805,6.029,CST-1368DR,6421,9002,15185,0.112,551
2020-04-24T01:48:56,42.805,6.029,CST-1368DR,6421,9000,15183,0.112,551
2020-04-24T01:51:58,42.805,6.029,CST-1368DR,6421,9001,15184,0.112,551
2020-04-24T01:54:59,42.805,6.029,CST-1368DR,6421,8999,15181,0.113,551
2020-04-24T01:58:01,42.805,6.029,CST-1368DR,6421,9001,15184,0.112,551
2020-04-24T02:01:03,42.805,6.029,CST-1368DR,6421,9001,15184,0.112,551
2020-04-24T02:04:04,42.805,6.029,CST-1368DR,6421,8997,15177,0.114,551
2020-04-24T02:07:06,42.805,6.029,CST-1368DR,6421,8998,15180,0.113,551
2020-04-24T02:10:08,42.805,6.029,CST-1368DR,6421,9000,15183,0.112,550
2020-04-24T02:13:10,42.805,6.029,CST-1368DR,6421,9000,15183,0.112,551
2020-04-24T02:16:11,42.805,6.029,CST-1368DR,6421,9000,15182,0.113,551
2020-04-24T02:19:13,42.805,6.029,CST-1368DR,6421,9000,15182,0.113,551
2020-04-24T02:22:14,42.805,6.029,CST-1368DR,6421,9001,15184,0.112,551
2020-04-24T02:25:16,42.805,6.029,CST-1368DR,6421,9000,15183,0.112,551
2020-04-24T02:28:18,42.805,6.029,CST-1368DR,6421,8999,15180,0.113,551
2020-04-24T02:31:20,42.805,6.029,CST-1368DR,6421,8998,15179,0.114,551
2020-04-24T02:34:21,42.805,6.029,CST-1368DR,6421,9000,15182,0.113,551
2020-04-24T02:37:23,42.805,6.029,CST-1368DR,6421,8999,15181,0.113,551
2020-04-24T02:40:25,42.805,6.029,CST-1368DR,6421,9000,15183,0.112,551
2020-04-24T02:43:26,42.805,6.029,CST-1368DR,6421,8999,15181,0.113,551
2020-04-24T02:46:28,42.805,6.029,CST-1368DR,6421,9001,15184,0.112,551
2020-04-24T02:49:30,42.805,6.029,CST-1368DR,6421,9001,15184,0.112,551
2020-04-24T02:52:32,42.805,6.029,CST-1368DR,6421,9002,15186,0.112,551
2020-04-24T02:55:33,42.805,6.029,CST-1368DR,6421,9002,15185,0.112,551
2020-04-24T02:58:35,42.805,6.029,CST-1368DR,6421,9000,15182,0.113,551
2020-04-24T03:01:37,42.805,6.029,CST-1368DR,6421,9000,15183,0.112,551
2020-04-24T03:04:38,42.805,6.029,CST-1368DR,6421,9001,15184,0.112,551
2020-04-24T03:07:40,42.805,6.029,CST-1368DR,6421,8999,15181,0.113,551
2020-04-24T03:10:42,42.805,6.029,CST-1368DR,6421,9000,15182,0.113,551
2020-04-24T03:13:44,42.805,6.029,CST-1368DR,6421,9001,15184,0.112,551
2020-04-24T03:16:45,42.805,6.029,CST-1368DR,6421,8999,15181,0.113,551
2020-04-24T03:19:47,42.805,6.029,CST-1368DR,6421,9001,15185,0.112,551
2020-04-24T03:22:49,42.805,6.029,CST-1368DR,6421,9001,15184,0.112,551
2020-04-24T03:25:50,42.805,6.029,CST-1368DR,6421,9000,15183,0.112,551
2020-04-24T03:28:52,42.805,6.029,CST-1368DR,6421,9001,15184,0.112,551
2020-04-24T03:31:54,42.805,6.029,CST-1368DR,6421,9001,15184,0.112,550
2020-04-24T03:34:56,42.805,6.029,CST-1368DR,6421,9001,15184,0.112,551
2020-04-24T03:37:57,42.805,6.029,CST-1368DR,6421,9000,15183,0.112,551
2020-04-24T03:40:59,42.805,6.029,CST-1368DR,6421,8999,15181,0.113,551
2020-04-24T03:44:01,42.805,6.029,CST-1368DR,6421,9000,15183,0.112,551
2020-04-24T03:47:02,42.805,6.029,CST-1368DR,6421,8999,15181,0.113,551
2020-04-24T03:50:04,42.805,6.029,CST-1368DR,6421,9000,15182,0.113,551
2020-04-24T03:53:06,42.805,6.029,CST-1368DR,6421,9000,15182,0.113,551
2020-04-24T03:56:08,42.805,6.029,CST-1368DR,6421,9001,15184,0.112,551
2020-04-24T03:59:09,42.805,6.029,CST-1368DR,6421,8999,15181,0.113,551
2020-04-24T04:02:11,42.805,6.029,CST-1368DR,6421,8999,15181,0.113,551
2020-04-24T04:05:13,42.805,6.029,CST-1368DR,6421,8999,15181,0.113,551
2020-04-24T04:08:14,42.805,6.029,CST-1368DR,6421,9000,15182,0.113,551
2020-04-24T04:11:16,42.805,6.029,CST-1368DR,6421,8998,15179,0.114,551
2020-04-24T04:14:18,42.805,6.029,CST-1368DR,6421,9001,15184,0.112,550
2020-04-24T04:17:19,42.805,6.029,CST-1368DR,6421,9000,15183,0.112,551
2020-04-24T04:20:21,42.805,6.029,CST-1368DR,6421,9001,15184,0.112,551
2020-04-24T04:23:23,42.805,6.029,CST-1368DR,6421,9000,15183,0.112,551
2020-04-24T04:26:25,42.805,6.029,CST-1368DR,6421,9000,15183,0.112,551
2020-04-24T04:29:26,42.805,6.029,CST-1368DR,6421,9000,15183,0.112,551
2020-04-24T04:32:28,42.805,6.029,CST-1368DR,6421,9000,15182,0.113,551
2020-04-24T04:35:30,42.805,6.029,CST-1368DR,6421,9001,15184,0.112,551
2020-04-24T04:38:31,42.805,6.029,CST-1368DR,6421,9001,15184,0.112,551
2020-04-24T04:41:33,42.805,6.029,CST-1368DR,6421,9000,15183,0.112,550
2020-04-24T04:44:35,42.805,6.029,CST-1368DR,6421,9000,15182,0.113,551
2020-04-24T04:47:36,42.805,6.029,CST-1368DR,6421,9000,15182,0.113,551
2020-04-24T04:50:38,42.805,6.029,CST-1368DR,6421,8996,15175,0.115,551
2020-04-24T04:53:40,42.805,6.029,CST-1368DR,6421,8998,15179,0.114,551
2020-04-24T04:56:42,42.805,6.029,CST-1368DR,6421,8999,15181,0.113,551
2020-04-24T04:59:43,42.805,6.029,CST-1368DR,6421,8999,15181,0.113,551
2020-04-24T05:02:45,42.805,6.029,CST-1368DR,6420,8998,15181,0.113,550
2020-04-24T05:05:47,42.805,6.029,CST-1368DR,6421,8998,15179,0.114,551
2020-04-24T05:08:48,42.805,6.029,CST-1368DR,6421,8999,15181,0.113,551
2020-04-24T05:11:50,42.805,6.029,CST-1368DR,6421,8999,15181,0.113,551
2020-04-24T05:14:52,42.805,6.029,CST-1368DR,6420,9000,15185,0.112,551
2020-04-24T05:17:54,42.805,6.029,CST-1368DR,6420,8999,15183,0.112,551
2020-04-24T05:20:55,42.805,6.029,CST-1368DR,6420,8999,15183,0.112,551
2020-04-24T05:23:57,42.805,6.029,CST-1368DR,6420,8997,15180,0.113,551
2020-04-24T05:26:59,42.805,6.029,CST-1368DR,6420,8995,15177,0.114,551
2020-04-24T05:30:00,42.805,6.029,CST-1368DR,6421,8999,15180,0.113,551
2020-04-24T05:33:02,42.805,6.029,CST-1368DR,6421,8998,15180,0.113,551
2020-04-24T05:36:04,42.805,6.029,CST-1368DR,6420,8999,15184,0.112,551
2020-04-24T05:39:05,42.805,6.029,CST-1368DR,6420,9001,15187,0.111,551
2020-04-24T05:42:07,42.805,6.029,CST-1368DR,6420,8999,15184,0.112,551
2020-04-24T05:45:09,42.805,6.029,CST-1368DR,6421,8999,15181,0.113,551
2020-04-24T05:48:10,42.805,6.029,CST-1368DR,6420,9000,15185,0.112,551
2020-04-24T05:51:12,42.805,6.029,CST-1368DR,6421,9000,15183,0.112,551
2020-04-24T05:54:14,42.805,6.029,CST-1368DR,6420,9001,15187,0.111,551
2020-04-24T05:57:16,42.805,6.029,CST-1368DR,6420,9000,15184,0.112,551
2020-04-24T06:00:17,42.805,6.029,CST-1368DR,6420,8999,15183,0.112,551
2020-04-24T06:03:19,42.805,6.029,CST-1368DR,6420,8999,15183,0.112,551
2020-04-24T06:06:21,42.805,6.029,CST-1368DR,6420,8996,15178,0.114,551
2020-04-24T06:09:22,42.805,6.029,CST-1368DR,6420,8999,15183,0.112,551
2020-04-24T06:12:24,42.805,6.029,CST-1368DR,6420,8999,15183,0.112,551
2020-04-24T06:15:26,42.805,6.029,CST-1368DR,6420,8998,15182,0.113,550
2020-04-24T06:18:27,42.805,6.029,CST-1368DR,6420,9000,15184,0.112,551
2020-04-24T06:21:29,42.805,6.029,CST-1368DR,6420,8999,15183,0.112,551
2020-04-24T06:24:31,42.805,6.029,CST-1368DR,6420,8999,15182,0.113,551
2020-04-24T06:27:33,42.805,6.029,CST-1368DR,6420,8999,15184,0.112,551
2020-04-24T06:30:34,42.805,6.029,CST-1368DR,6420,8997,15179,0.114,550
2020-04-24T06:33:36,42.805,6.029,CST-1368DR,6420,8998,15181,0.113,551
2020-04-24T06:36:38,42.805,6.029,CST-1368DR,6420,8999,15183,0.112,551
2020-04-24T06:39:40,42.805,6.029,CST-1368DR,6420,9000,15184,0.112,551
2020-04-24T06:42:41,42.805,6.029,CST-1368DR,6420,8999,15183,0.112,550
2020-04-24T06:45:43,42.805,6.029,CST-1368DR,6420,8997,15179,0.114,551
2020-04-24T06:48:45,42.805,6.029,CST-1368DR,6420,8999,15183,0.112,551
2020-04-24T06:51:46,42.805,6.029,CST-1368DR,6420,8998,15181,0.113,551
2020-04-24T06:54:48,42.805,6.029,CST-1368DR,6420,8998,15182,0.113,551
2020-04-24T06:57:50,42.805,6.029,CST-1368DR,6420,8999,15183,0.112,551
2020-04-24T07:00:52,42.805,6.029,CST-1368DR,6420,8999,15182,0.113,551
2020-04-24T07:03:53,42.805,6.029,CST-1368DR,6420,8999,15183,0.112,551
2020-04-24T07:06:55,42.805,6.029,CST-1368DR,6420,8999,15183,0.112,551
2020-04-24T07:09:57,42.805,6.029,CST-1368DR,6420,8999,15184,0.112,551
2020-04-24T07:12:59,42.805,6.029,CST-1368DR,6420,8999,15183,0.112,551
2020-04-24T07:16:01,42.805,6.029,CST-1368DR,6420,8998,15182,0.113,551
2020-04-24T07:19:02,42.805,6.029,CST-1368DR,6420,8999,15182,0.113,551
2020-04-24T07:22:04,42.805,6.029,CST-1368DR,6420,8998,15181,0.113,551
2020-04-24T07:25:06,42.805,6.029,CST-1368DR,6420,9000,15185,0.112,551
2020-04-24T07:28:07,42.805,6.029,CST-1368DR,6420,8999,15184,0.112,551
2020-04-24T07:31:09,42.805,6.029,CST-1368DR,6420,8998,15181,0.113,551
2020-04-24T07:34:11,42.805,6.029,CST-1368DR,6420,8999,15184,0.112,551
2020-04-24T07:37:12,42.805,6.029,CST-1368DR,6420,8999,15183,0.112,551
2020-04-24T07:40:14,42.805,6.029,CST-1368DR,6420,8999,15182,0.113,551
2020-04-24T07:43:16,42.805,6.029,CST-1368DR,6420,9000,15184,0.112,551
2020-04-24T07:46:18,42.805,6.029,CST-1368DR,6420,8999,15183,0.112,551
2020-04-24T07:49:19,42.805,6.029,CST-1368DR,6420,9000,15184,0.112,551
2020-04-24T07:52:21,42.805,6.029,CST-1368DR,6420,8999,15182,0.113,551
2020-04-24T07:55:23,42.805,6.029,CST-1368DR,6420,8999,15182,0.113,551
2020-04-24T07:58:24,42.805,6.029,CST-1368DR,6420,8999,15183,0.112,551
2020-04-24T08:01:26,42.805,6.029,CST-1368DR,6420,8998,15182,0.113,551
2020-04-24T08:04:28,42.805,6.029,CST-1368DR,6420,8998,15181,0.113,551
2020-04-24T08:07:29,42.805,6.029,CST-1368DR,6420,8985,15160,0.119,550
2020-04-24T08:10:31,42.805,6.029,CST-1368DR,6420,8998,15182,0.113,551
2020-04-24T08:13:33,42.805,6.029,CST-1368DR,6420,8997,15179,0.114,551
2020-04-24T08:16:35,42.805,6.029,CST-1368DR,6420,8999,15182,0.113,551
2020-04-24T08:19:36,42.805,6.029,CST-1368DR,6420,8999,15182,0.113,551
2020-04-24T08:22:38,42.805,6.029,CST-1368DR,6420,9000,15184,0.112,551
2020-04-24T08:25:40,42.805,6.029,CST-1368DR,6420,8996,15178,0.114,551
2020-04-24T08:28:41,42.805,6.029,CST-1368DR,6420,8998,15181,0.113,550
2020-04-24T08:31:43,42.805,6.029,CST-1368DR,6420,8998,15182,0.113,551
2020-04-24T08:34:45,42.805,6.029,CST-1368DR,6420,8998,15181,0.113,551
2020-04-24T08:37:46,42.805,6.029,CST-1368DR,6420,8999,15183,0.112,551
2020-04-24T08:40:48,42.805,6.029,CST-1368DR,6420,8999,15182,0.113,551
2020-04-24T08:43:50,42.805,6.029,CST-1368DR,6420,8999,15184,0.112,551
2020-04-24T08:46:51,42.805,6.029,CST-1368DR,6420,8998,15182,0.113,551
2020-04-24T08:49:53,42.805,6.029,CST-1368DR,6420,8999,15183,0.112,551
2020-04-24T08:52:55,42.805,6.029,CST-1368DR,6420,8998,15181,0.113,551
2020-04-24T08:55:56,42.805,6.029,CST-1368DR,6420,8999,15182,0.113,551
2020-04-24T08:58:58,42.805,6.029,CST-1368DR,6420,8999,15182,0.113,551
2020-04-24T09:02:00,42.805,6.029,CST-1368DR,6420,8999,15184,0.112,551
2020-04-24T09:05:01,42.805,6.029,CST-1368DR,6420,8999,15183,0.112,551
2020-04-24T09:08:03,42.805,6.029,CST-1368DR,6420,8998,15182,0.113,551
2020-04-24T09:11:05,42.805,6.029,CST-1368DR,6420,8998,15182,0.113,551
2020-04-24T09:14:07,42.805,6.029,CST-1368DR,6420,8998,15182,0.113,551
2020-04-24T09:17:09,42.805,6.029,CST-1368DR,6420,8998,15182,0.113,551
2020-04-24T09:20:10,42.805,6.029,CST-1368DR,6420,8999,15183,0.112,551
2020-04-24T09:23:12,42.805,6.029,CST-1368DR,6420,8998,15181,0.113,551
2020-04-24T09:26:14,42.805,6.029,CST-1368DR,6420,8999,15183,0.112,551
2020-04-24T09:29:15,42.805,6.029,CST-1368DR,6420,8998,15182,0.113,551
2020-04-24T09:32:17,42.805,6.029,CST-1368DR,6420,8999,15184,0.112,551
2020-04-24T09:35:19,42.805,6.029,CST-1368DR,6420,8999,15183,0.112,550
2020-04-24T09:38:21,42.805,6.029,CST-1368DR,6420,8999,15183,0.112,551
2020-04-24T09:41:22,42.805,6.029,CST-1368DR,6420,8998,15182,0.113,551
2020-04-24T09:44:24,42.805,6.029,CST-1368DR,6420,8999,15184,0.112,551
2020-04-24T09:47:26,42.805,6.029,CST-1368DR,6420,8999,15184,0.112,551
2020-04-24T09:50:27,42.805,6.029,CST-1368DR,6420,8998,15182,0.113,551
2020-04-24T09:53:29,42.805,6.029,CST-1368DR,6420,8997,15180,0.113,551
2020-04-24T09:56:31,42.805,6.029,CST-1368DR,6420,8998,15182,0.113,551
2020-04-24T09:59:32,42.805,6.029,CST-1368DR,6420,8999,15183,0.112,551
2020-04-24T10:02:34,42.805,6.029,CST-1368DR,6420,9000,15185,0.112,551
2020-04-24T10:05:36,42.805,6.029,CST-1368DR,6420,9000,15185,0.112,551
2020-04-24T10:08:38,42.805,6.029,CST-1368DR,6420,8999,15184,0.112,551
2020-04-24T10:11:39,42.805,6.029,CST-1368DR,6419,8999,15186,0.112,551
2020-04-24T10:14:41,42.805,6.029,CST-1368DR,6420,9000,15184,0.112,551
2020-04-24T10:17:43,42.805,6.029,CST-1368DR,6420,8999,15182,0.113,551
2020-04-24T10:20:44,42.805,6.029,CST-1368DR,6420,8998,15182,0.113,551
2020-04-24T10:23:46,42.805,6.029,CST-1368DR,6419,8999,15185,0.112,551
2020-04-24T10:26:48,42.805,6.029,CST-1368DR,6420,8999,15183,0.112,551
2020-04-24T10:29:49,42.805,6.029,CST-1368DR,6420,8999,15183,0.112,551
2020-04-24T10:32:51,42.805,6.029,CST-1368DR,6420,8999,15183,0.112,551
2020-04-24T10:35:53,42.805,6.029,CST-1368DR,6420,8999,15184,0.112,551
2020-04-24T10:38:54,42.805,6.029,CST-1368DR,6419,8999,15185,0.112,551
2020-04-24T10:41:56,42.805,6.029,CST-1368DR,6419,8999,15185,0.112,551
2020-04-24T10:44:58,42.805,6.029,CST-1368DR,6419,8999,15186,0.112,551
2020-04-24T10:48:00,42.805,6.029,CST-1368DR,6419,8998,15183,0.112,551
2020-04-24T10:51:01,42.805,6.029,CST-1368DR,6419,8998,15184,0.112,550
2020-04-24T10:54:03,42.805,6.029,CST-1368DR,6419,8998,15184,0.112,551
2020-04-24T10:57:05,42.805,6.029,CST-1368DR,6419,8998,15184,0.112,550
2020-04-24T11:00:06,42.805,6.029,CST-1368DR,6419,8999,15186,0.112,551
2020-04-24T11:03:08,42.805,6.029,CST-1368DR,6419,9000,15187,0.111,550
2020-04-24T11:06:10,42.805,6.029,CST-1368DR,6419,8999,15186,0.112,551
2020-04-24T11:09:12,42.805,6.029,CST-1368DR,6419,8999,15186,0.112,551
2020-04-24T11:12:13,42.805,6.029,CST-1368DR,6419,9000,15186,0.112,551
2020-04-24T11:15:15,42.805,6.029,CST-1368DR,6419,9000,15186,0.112,551
2020-04-24T11:18:17,42.805,6.029,CST-1368DR,6419,8999,15186,0.112,551
2020-04-24T11:21:18,42.805,6.029,CST-1368DR,6419,8999,15185,0.112,551
2020-04-24T11:24:20,42.805,6.029,CST-1368DR,6419,8998,15183,0.112,551
2020-04-24T11:27:22,42.805,6.029,CST-1368DR,6419,8999,15185,0.112,551
2020-04-24T11:30:24,42.805,6.029,CST-1368DR,6419,8999,15185,0.112,551
2020-04-24T11:33:25,42.805,6.029,CST-1368DR,6419,8999,15186,0.112,551
2020-04-24T11:36:27,42.805,6.029,CST-1368DR,6419,8998,15184,0.112,551
2020-04-24T11:39:29,42.805,6.029,CST-1368DR,6419,8999,15185,0.112,551
2020-04-24T11:42:30,42.805,6.029,CST-1368DR,6419,8999,15186,0.112,551
2020-04-24T11:45:32,42.805,6.029,CST-1368DR,6419,8999,15186,0.112,551
2020-04-24T11:48:34,42.805,6.029,CST-1368DR,6419,8998,15184,0.112,551
2020-04-24T11:51:35,42.805,6.029,CST-1368DR,6419,8998,15184,0.112,551
2020-04-24T11:54:37,42.805,6.029,CST-1368DR,6419,8998,15183,0.112,550
2020-04-24T11:57:39,42.805,6.029,CST-1368DR,6419,8997,15183,0.112,551
2020-04-24T12:00:40,42.805,6.029,CST-1368DR,6419,8998,15183,0.112,551
2020-04-24T12:03:42,42.805,6.029,CST-1368DR,6419,8999,15185,0.112,551
2020-04-24T12:06:44,42.805,6.029,CST-1368DR,6419,8998,15184,0.112,550
2020-04-24T12:09:46,42.805,6.029,CST-1368DR,6419,8998,15184,0.112,551
2020-04-24T12:12:47,42.805,6.029,CST-1368DR,6419,8999,15185,0.112,551
2020-04-24T12:15:49,42.805,6.029,CST-1368DR,6419,8997,15183,0.112,550
2020-04-24T12:18:51,42.805,6.029,CST-1368DR,6419,8999,15185,0.112,551
2020-04-24T12:21:52,42.805,6.029,CST-1368DR,6419,8998,15184,0.112,551
2020-04-24T12:24:54,42.805,6.029,CST-1368DR,6419,8997,15182,0.113,551
2020-04-24T12:27:56,42.805,6.029,CST-1368DR,6419,8999,15185,0.112,551
2020-04-24T12:30:57,42.805,6.029,CST-1368DR,6419,8999,15185,0.112,551
2020-04-24T12:33:59,42.805,6.029,CST-1368DR,6419,8998,15183,0.112,551
2020-04-24T12:37:01,42.805,6.029,CST-1368DR,6419,8998,15183,0.112,551
2020-04-24T12:40:02,42.805,6.029,CST-1368DR,6419,8998,15184,0.112,550
2020-04-24T12:43:04,42.805,6.029,CST-1368DR,6419,8998,15183,0.112,551
2020-04-24T12:46:06,42.805,6.029,CST-1368DR,6419,8998,15184,0.112,550
2020-04-24T12:49:07,42.805,6.029,CST-1368DR,6419,8997,15181,0.113,551
2020-04-24T12:52:09,42.805,6.029,CST-1368DR,6419,8997,15183,0.112,551
2020-04-24T12:55:11,42.805,6.029,CST-1368DR,6419,8998,15184,0.112,550
2020-04-24T12:58:12,42.805,6.029,CST-1368DR,6419,8998,15184,0.112,551
2020-04-24T13:01:14,42.805,6.029,CST-1368DR,6419,8997,15183,0.112,551
2020-04-24T13:04:16,42.805,6.029,CST-1368DR,6419,8996,15180,0.113,551
2020-04-24T13:07:18,42.805,6.029,CST-1368DR,6419,8995,15179,0.114,551
2020-04-24T13:10:19,42.805,6.029,CST-1368DR,6419,8998,15184,0.112,551
2020-04-24T13:13:21,42.805,6.029,CST-1368DR,6419,8996,15181,0.113,551
2020-04-24T13:16:23,42.805,6.029,CST-1368DR,6419,8997,15181,0.113,551
2020-04-24T13:19:24,42.805,6.029,CST-1368DR,6419,8997,15183,0.112,551
2020-04-24T13:22:26,42.805,6.029,CST-1368DR,6419,8998,15183,0.112,551
2020-04-24T13:25:28,42.805,6.029,CST-1368DR,6419,8998,15184,0.112,551
2020-04-24T13:28:29,42.805,6.029,CST-1368DR,6419,8995,15178,0.114,551
2020-04-24T13:31:31,42.805,6.029,CST-1368DR,6419,8998,15183,0.112,551
2020-04-24T13:34:33,42.805,6.029,CST-1368DR,6419,8998,15183,0.112,551
2020-04-24T13:37:35,42.805,6.029,CST-1368DR,6419,8998,15184,0.112,551
2020-04-24T13:40:36,42.805,6.029,CST-1368DR,6419,8993,15176,0.114,551
2020-04-24T13:43:38,42.805,6.029,CST-1368DR,6419,8998,15184,0.112,551
2020-04-24T13:46:40,42.805,6.029,CST-1368DR,6419,8996,15181,0.113,551
2020-04-24T13:49:41,42.805,6.029,CST-1368DR,6419,8995,15179,0.114,551
2020-04-24T13:52:43,42.805,6.029,CST-1368DR,6419,8996,15180,0.113,551
2020-04-24T13:55:45,42.805,6.029,CST-1368DR,6419,8995,15179,0.114,551
2020-04-24T13:58:46,42.805,6.029,CST-1368DR,6419,8995,15178,0.114,551
2020-04-24T14:01:48,42.805,6.029,CST-1368DR,6419,8996,15180,0.113,551
2020-04-24T14:04:50,42.805,6.029,CST-1368DR,6419,8996,15180,0.113,551
2020-04-24T14:07:52,42.805,6.029,CST-1368DR,6419,8996,15180,0.113,551
2020-04-24T14:10:53,42.805,6.029,CST-1368DR,6419,8996,15180,0.113,551
2020-04-24T14:13:55,42.805,6.029,CST-1368DR,6419,8995,15179,0.114,551
2020-04-24T14:16:57,42.805,6.029,CST-1368DR,6419,8997,15183,0.112,551
2020-04-24T14:19:58,42.805,6.029,CST-1368DR,6419,8996,15180,0.113,551
2020-04-24T14:23:00,42.805,6.029,CST-1368DR,6419,8997,15181,0.113,551
2020-04-24T14:26:02,42.805,6.029,CST-1368DR,6419,8994,15177,0.114,551
2020-04-24T14:29:03,42.805,6.029,CST-1368DR,6419,8996,15180,0.113,551
2020-04-24T14:32:05,42.805,6.029,CST-1368DR,6419,8996,15181,0.113,550
2020-04-24T14:35:07,42.805,6.029,CST-1368DR,6419,8997,15181,0.113,551
2020-04-24T14:38:09,42.805,6.029,CST-1368DR,6419,8997,15183,0.112,551
2020-04-24T14:41:10,42.805,6.029,CST-1368DR,6419,8996,15180,0.113,551
2020-04-24T14:44:12,42.805,6.029,CST-1368DR,6419,8992,15174,0.115,551
2020-04-24T14:47:14,42.805,6.029,CST-1368DR,6419,8997,15181,0.113,551
2020-04-24T14:50:15,42.805,6.029,CST-1368DR,6419,8995,15179,0.114,551
2020-04-24T14:53:17,42.805,6.029,CST-1368DR,6419,8992,15174,0.115,551
2020-04-24T14:56:19,42.805,6.029,CST-1368DR,6419,8996,15180,0.113,551
2020-04-24T14:59:21,42.805,6.029,CST-1368DR,6419,8996,15180,0.113,551
2020-04-24T15:02:22,42.805,6.029,CST-1368DR,6419,8997,15181,0.113,551
2020-04-24T15:05:24,42.805,6.029,CST-1368DR,6419,8994,15177,0.114,551
2020-04-24T15:08:26,42.805,6.029,CST-1368DR,6419,8997,15181,0.113,551
2020-04-24T15:11:27,42.805,6.029,CST-1368DR,6419,8996,15181,0.113,551
2020-04-24T15:14:29,42.805,6.029,CST-1368DR,6419,8996,15181,0.113,551
2020-04-24T15:17:31,42.805,6.029,CST-1368DR,6418,8996,15183,0.112,551
2020-04-24T15:20:33,42.805,6.029,CST-1368DR,6418,8997,15184,0.112,551
2020-04-24T15:23:34,42.805,6.029,CST-1368DR,6418,8995,15181,0.113,551
2020-04-24T15:26:36,42.805,6.029,CST-1368DR,6418,8994,15180,0.113,551
2020-04-24T15:29:38,42.805,6.029,CST-1368DR,6418,8997,15184,0.112,551
2020-04-24T15:32:40,42.805,6.029,CST-1368DR,6418,8995,15181,0.113,551
2020-04-24T15:35:41,42.805,6.029,CST-1368DR,6418,8995,15181,0.113,551
2020-04-24T15:38:43,42.805,6.029,CST-1368DR,6418,8996,15182,0.113,551
2020-04-24T15:41:45,42.805,6.029,CST-1368DR,6418,8995,15180,0.113,551
2020-04-24T15:44:47,42.805,6.029,CST-1368DR,6418,8995,15181,0.113,551
2020-04-24T15:47:48,42.805,6.029,CST-1368DR,6418,8993,15178,0.114,551
2020-04-24T15:50:50,42.805,6.029,CST-1368DR,6418,8995,15181,0.113,551
2020-04-24T15:53:52,42.805,6.029,CST-1368DR,6418,8996,15182,0.113,551
2020-04-24T15:56:54,42.805,6.029,CST-1368DR,6418,8996,15182,0.113,551
2020-04-24T15:59:55,42.805,6.029,CST-1368DR,6418,8993,15178,0.114,551
2020-04-24T16:02:57,42.805,6.029,CST-1368DR,6418,8995,15181,0.113,551
2020-04-24T16:05:59,42.805,6.029,CST-1368DR,6418,8993,15178,0.114,551
2020-04-24T16:09:00,42.805,6.029,CST-1368DR,6418,8994,15180,0.113,551
2020-04-24T16:12:02,42.805,6.029,CST-1368DR,6418,8993,15177,0.114,551
2020-04-24T16:15:04,42.805,6.029,CST-1368DR,6418,8993,15178,0.114,551
2020-04-24T16:18:05,42.805,6.029,CST-1368DR,6418,8994,15180,0.113,551
2020-04-24T16:21:07,42.805,6.029,CST-1368DR,6418,8995,15181,0.113,551
2020-04-24T16:24:09,42.805,6.029,CST-1368DR,6418,8996,15182,0.113,551
2020-04-24T16:27:10,42.805,6.029,CST-1368DR,6418,8992,15176,0.114,551
2020-04-24T16:30:12,42.805,6.029,CST-1368DR,6418,8995,15181,0.113,551
2020-04-24T16:33:14,42.805,6.029,CST-1368DR,6418,8993,15178,0.114,551
2020-04-24T16:36:15,42.805,6.029,CST-1368DR,6418,8992,15176,0.114,551
2020-04-24T16:39:17,42.805,6.029,CST-1368DR,6418,8981,15157,0.119,551
2020-04-24T16:42:19,42.805,6.029,CST-1368DR,6418,8995,15181,0.113,551
2020-04-24T16:45:21,42.805,6.029,CST-1368DR,6418,8995,15181,0.113,551
2020-04-24T16:48:22,42.805,6.029,CST-1368DR,6418,8994,15178,0.114,551
2020-04-24T16:51:24,42.805,6.029,CST-1368DR,6418,8991,15175,0.115,551
2020-04-24T16:54:26,42.805,6.029,CST-1368DR,6418,8986,15166,0.117,551